Location: Asheville, NC
(35.6000°N, 82.5500°W)
Time: 07:47:33
(UTC-04:00)

Envisat - Pass Details

Date: 09 February 2018
Orbit: 764 x 766 km, 98.2° (Epoch: 22 May)

Event Time Altitude Azimuth Distance (km) Brightness Sun altitude
Exits shadow 21:21:01 16° 250° (WSW) 1,930 5.5 -39.9°
Maximum altitude 21:22:12 17° 267° (W) 1,867 5.5 -40.2°
Drops below altitude 10° 21:25:25 10° 307° (NW) 2,301 6.0 -40.8°
Sets 21:28:34 0° 327° (NNW) 3,232 6.7 -41.4°
